CZ-6A DEB

Satellite information

Favourite Embed

Satellite Type and Status

DEBRISIN ORBIT

Key statistics

Satellite CZ-6A DEB at a glance.

Uptime

495

Days in orbit

Revolutions

≈ 14.4

Per day

Orbit

LEO

Low Earth Orbit

Inclination

89.1

Latest

Satellite identification and parameters

Extended collection of information and parameters for CZ-6A DEB.

Object identification

Identified? True

Debris? True

Object name: CZ-6A DEB

International designator: 2024-140UD

Object number (NORAD): 61316

Object ID (CCSDS): 61316

Country: PEOPLES REPUBLIC OF CHINA (PRC)

Current information (Y/N): Y

RCS size: SMALL

Orbital parameters

Period: 99.787 minutes

Inclination: 89.0649 deg

SMA: 7126.484 km

Apoapsis: 803.395 km

Periapsis: 693.302 km

RAAN: 297.6781 deg

Eccentricy: 0.0077242

Argument of periapsis: 252.9388 deg

Mean anomaly: 106.3343 deg

Mean motion: 14.43078071 rev/day

Mean motion (dot): 0.00004929 rev/day2

B* drag term: 0.0014141 1/REarth

Two-line elements (TLE)

Creation date: Dec. 12, 2025, 7:16 a.m.

Reference frame: TEME

Reference center: EARTH

Epoch: Dec. 11, 2025, 8:48 p.m. UTC

TLE line 0: 0 CZ-6A DEB

TLE line 1: 1 61316U 24140UD 25345.86689135 .00004929 00000-0 14141-2 0 9990

TLE line 2: 2 61316 89.0649 297.6781 0077242 252.9388 106.3343 14.43078071167722

Live tracking on map

Real-time ground track for satellite CZ-6A DEB.

In-orbit conjunctions

A list of the most updated potential collisions computed for object CZ-6A DEB.

Target Orbit TCA Probability of collision Miss distance Type
CZ-4 DEB SSO 2025-09-21 06:01:57 0.0002805911 218.0 (m) DEBRIS
SL-24 R/B SSO 2025-02-05 13:39:33 0.000372315 126.0 (m) ROCKET BODY
CZ-6A DEB SSO 2025-02-03 04:53:27 0.0003286179 32.0 (m) DEBRIS
IRS B3 SSO 2025-01-21 17:39:16 0.0005123928 301.0 (m) PAYLOAD
NOAA 16 DEB SSO 2024-12-15 14:49:57 0.0001368296 364.0 (m) DEBRIS

Associated space launch

18 Low Earth Orbit communication satellites with Ku, Q and V band payloads for the G60 constellation operated by Shanghai Spacecom Satellite Technology (SSST) with funding backed by the Shanghai local government. Initial constellation will consist of 1296 satellites by 2027 with long term plans to expand it to 12000 satellites.

CZ-6A DEB was lifted into orbit during the mission ‘Long March 6A | G60 Polar Group 01’, on board a Long March 6A space rocket.

The launch took place on Aug. 6, 2024, 6:42 a.m. from Launch Complex 9A.

For more information about the launch, click the button.

Launch to space Long March 6A | G60 Polar Group 01
Long March 6A | G60 Polar Group 01

Agency: N/A

Status: Launch Successful

Launch date: Aug. 6, 2024, 6:42 a.m. UTC

Rocket: Long March 6A

Launch pad: Launch Complex 9A

Location: Taiyuan Satellite Launch Center, People's Republic of China

...

Latest news about this satellite

News about space launch
Brightness of first Chinese broadband constellation satellites alarms astronomers

The first satellites of a Chinese broadband constellation are significantly brighter than those of Western systems, posing a new challenge for astronomers.

News about space launch
Chinese rocket stage breaks up into cloud of more than 700 pieces of space debris

HELSINKI — A Chinese Long March 6A rocket’s upper stage has fragmented into a cloud of over 700 pieces of space debris, adding to concerns about long-term orbital safety. China […]

News about space launch
China's Thousand Sails Megaconstellation Kicks Off with Dangerous Debris Field

China's Thousand Sails Megaconstellation Kicks Off with Dangerous Debris Field


Newsletter sign-up

Weekly statistics, charts and insights to help you stay on top of the space industry.